Location: Unspecified
(40.7945°N, 111.1337°W)
Time: 10:36:47
(UTC-06:00)

ISS - Pass Details

Date: 24 March 2019
Orbit: 408 x 410 km, 51.6° (Epoch: 24 April)

Event Time Altitude Azimuth Distance (km) Brightness Sun altitude
Rises 21:45:45 0° 278° (W) 2,326 1.3 -23.7°
Reaches altitude 10° 21:48:20 10° 299° (WNW) 1,467 0.1 -24.1°
Maximum altitude 21:50:38 18° 343° (NNW) 1,098 -1.2 -24.5°
Enters shadow 21:51:08 17° 355° (N) 1,119 -1.3 -24.6°
